contact:dominique.lefevre@mio.osupytheas.fr, maurice.libes@osupytheas.fr, didier.mallarino@osupytheas.fr
Project:EMSO http://www.emso-fr.org/EMSO-France
Depth: 2436.0 m
Title:EMSO Ligure Ouest : Data MII capteur AQUADOPP
Date,Latitude,Longitude,X_East,Y_North,Z_Up,Amplitude_X,Amplitude_Y,Amplitude_Z,Batterie,SoundSpeed,Heading,Pitch,Roll,Pressure,TIS,Speed,Direction
, degrees North, degrees East, m.s-1, m.s-1,m.s-1, 1, 1, 1, Volt, m.s-1, degree, degree, degree, dbar, degree_C, m.s-1, degree
2023-12-08T00:04:03,42.805,6.029,-0.022,-0.033,-0.031,112.0,111.0,108.0,13.3,1505.2,340.1,-0.8,1.8,2471.553,13.28,0.039,213.7
2023-12-08T00:07:03,42.805,6.029,-0.016,-0.027,-0.04,111.0,110.0,108.0,13.4,1505.2,341.5,-0.8,1.8,2471.562,13.29,0.031,210.7
2023-12-08T00:10:03,42.805,6.029,-0.041,-0.035,-0.035,112.0,111.0,107.0,13.4,1505.2,349.6,-0.8,1.8,2471.532,13.29,0.053,229.5
2023-12-08T00:13:03,42.805,6.029,-0.021,-0.034,-0.032,112.0,111.0,107.0,13.4,1505.2,344.9,-0.7,1.8,2471.553,13.29,0.039,211.7
2023-12-08T00:16:03,42.805,6.029,-0.035,-0.019,-0.031,113.0,112.0,108.0,13.4,1505.2,0.8,-0.8,1.8,2471.55,13.29,0.039,241.5
2023-12-08T00:19:03,42.805,6.029,-0.022,-0.047,-0.002,112.0,112.0,108.0,13.4,1505.2,0.0,-0.8,1.8,2471.498,13.29,0.051,205.1
2023-12-08T00:22:03,42.805,6.029,-0.017,-0.033,-0.011,112.0,112.0,108.0,13.4,1505.2,353.0,-0.8,1.8,2471.524,13.29,0.037,207.3
2023-12-08T00:25:03,42.805,6.029,-0.022,-0.018,0.036,112.0,112.0,108.0,13.3,1505.2,356.5,-0.8,1.8,2471.533,13.29,0.028,230.7
2023-12-08T00:28:03,42.805,6.029,-0.029,-0.023,0.01,113.0,112.0,107.0,13.4,1505.2,350.2,-0.8,1.8,2471.514,13.29,0.037,231.6
2023-12-08T00:31:03,42.805,6.029,-0.013,-0.044,-0.036,112.0,111.0,107.0,13.4,1505.2,336.5,-0.8,1.8,2471.545,13.29,0.045,196.5
2023-12-08T00:34:03,42.805,6.029,-0.061,-0.008,-0.011,112.0,111.0,109.0,13.3,1505.2,355.6,-0.8,1.8,2471.544,13.29,0.061,262.5
2023-12-08T00:37:03,42.805,6.029,-0.016,-0.043,0.008,112.0,111.0,107.0,13.4,1505.2,345.1,-0.7,1.8,2471.519,13.29,0.045,200.4
2023-12-08T00:40:03,42.805,6.029,-0.034,-0.008,0.01,112.0,112.0,107.0,13.4,1505.2,354.6,-0.8,1.8,2471.544,13.29,0.034,256.8
2023-12-08T00:43:03,42.805,6.029,-0.04,-0.013,-0.011,112.0,112.0,108.0,13.3,1505.2,357.2,-0.8,1.8,2471.508,13.29,0.042,252.0
2023-12-08T00:46:03,42.805,6.029,-0.033,-0.028,0.012,112.0,111.0,108.0,13.3,1505.2,354.5,-0.8,1.8,2471.54,13.29,0.043,229.7
2023-12-08T00:49:03,42.805,6.029,-0.02,-0.032,-0.007,114.0,111.0,107.0,13.4,1505.2,349.4,-0.8,1.8,2471.552,13.29,0.037,212.0
2023-12-08T00:52:03,42.805,6.029,-0.051,-0.036,-0.015,113.0,111.0,108.0,13.3,1505.2,349.9,-0.7,1.8,2471.569,13.29,0.062,234.8
2023-12-08T00:55:03,42.805,6.029,-0.034,-0.006,-0.023,112.0,111.0,109.0,13.3,1505.2,351.1,-0.8,1.8,2471.572,13.29,0.034,260.0
2023-12-08T00:58:03,42.805,6.029,-0.032,-0.037,0.009,112.0,111.0,108.0,13.4,1505.2,347.1,-0.8,1.8,2471.533,13.29,0.048,220.9
2023-12-08T01:04:03,42.805,6.029,-0.02,-0.006,-0.008,113.0,111.0,109.0,13.4,1505.2,348.5,-0.8,1.8,2471.571,13.29,0.02,253.3
2023-12-08T01:07:03,42.805,6.029,-0.041,-0.011,0.014,111.0,111.0,107.0,13.4,1505.2,347.0,-0.8,1.8,2471.624,13.29,0.042,255.0
2023-12-08T01:10:03,42.805,6.029,-0.042,-0.017,-0.035,112.0,112.0,107.0,13.4,1505.2,354.3,-0.8,1.8,2471.592,13.29,0.045,248.0
2023-12-08T01:13:03,42.805,6.029,-0.03,-0.007,-0.048,113.0,112.0,109.0,13.4,1505.2,344.3,-0.8,1.8,2471.576,13.29,0.03,256.9
2023-12-08T01:16:03,42.805,6.029,-0.019,-0.01,-0.044,112.0,112.0,108.0,13.4,1505.2,349.6,-0.8,1.8,2471.561,13.29,0.021,242.2
2023-12-08T01:19:03,42.805,6.029,-0.039,-0.001,-0.001,113.0,111.0,108.0,13.4,1505.2,350.0,-0.8,1.8,2471.574,13.29,0.039,268.5
2023-12-08T01:22:03,42.805,6.029,-0.058,0.0,-0.039,112.0,112.0,112.0,13.3,1505.2,0.0,-0.8,1.8,2471.542,13.29,0.057,270.0
2023-12-08T01:25:03,42.805,6.029,-0.044,-0.013,-0.003,113.0,112.0,107.0,13.4,1505.2,335.6,-0.8,1.8,2471.544,13.29,0.045,253.5
2023-12-08T01:28:03,42.805,6.029,-0.029,-0.007,-0.025,112.0,112.0,108.0,13.3,1505.2,341.5,-0.7,1.8,2471.552,13.29,0.029,256.4
2023-12-08T01:31:03,42.805,6.029,-0.035,0.013,-0.018,112.0,112.0,108.0,13.4,1505.2,1.7,-0.7,1.8,2471.577,13.29,0.037,290.4
2023-12-08T01:34:03,42.805,6.029,-0.04,-0.008,-0.018,112.0,111.0,108.0,13.4,1505.2,343.7,-0.7,1.8,2471.565,13.29,0.04,258.7
2023-12-08T01:37:03,42.805,6.029,-0.035,-0.004,-0.031,113.0,111.0,108.0,13.4,1505.2,345.5,-0.8,1.8,2471.538,13.29,0.035,263.5
2023-12-08T01:40:03,42.805,6.029,-0.05,0.011,0.038,111.0,113.0,109.0,13.4,1505.2,359.2,-0.8,1.8,2471.549,13.29,0.051,282.4
2023-12-08T01:43:03,42.805,6.029,-0.04,-0.012,0.0,112.0,111.0,109.0,13.3,1505.2,352.8,-0.8,1.8,2471.55,13.29,0.041,253.3
2023-12-08T01:46:03,42.805,6.029,-0.03,-0.017,-0.027,112.0,110.0,109.0,13.4,1505.2,347.4,-0.8,1.8,2471.519,13.29,0.034,240.5
2023-12-08T01:49:03,42.805,6.029,-0.04,-0.003,-0.018,111.0,111.0,107.0,13.3,1505.2,349.5,-0.8,1.8,2471.508,13.29,0.04,265.7
2023-12-08T01:52:03,42.805,6.029,-0.032,0.008,0.003,111.0,111.0,106.0,13.4,1505.2,355.2,-0.8,1.8,2471.569,13.29,0.032,284.0
2023-12-08T01:55:03,42.805,6.029,-0.041,0.004,0.005,111.0,110.0,108.0,13.3,1505.2,347.9,-0.8,1.8,2471.511,13.29,0.041,275.6
2023-12-08T01:58:03,42.805,6.029,-0.037,-0.009,-0.011,112.0,110.0,107.0,13.3,1505.2,351.9,-0.8,1.8,2471.572,13.29,0.038,256.3
2023-12-08T02:04:03,42.805,6.029,-0.04,0.019,-0.009,112.0,110.0,107.0,13.4,1505.2,351.3,-0.7,1.8,2471.626,13.29,0.044,295.4
2023-12-08T02:07:03,42.805,6.029,-0.048,-0.002,-0.026,110.0,110.0,108.0,13.4,1505.2,338.2,-0.8,1.8,2471.615,13.29,0.048,267.6
2023-12-08T02:10:03,42.805,6.029,-0.038,0.001,-0.032,111.0,111.0,107.0,13.4,1505.2,351.3,-0.8,1.8,2471.611,13.29,0.038,271.5
2023-12-08T02:13:03,42.805,6.029,-0.018,0.003,-0.015,111.0,111.0,108.0,13.4,1505.2,0.0,-0.8,1.9,2471.547,13.29,0.018,279.5
2023-12-08T02:16:03,42.805,6.029,-0.046,0.004,-0.032,112.0,110.0,108.0,13.4,1505.2,350.0,-0.7,1.8,2471.62,13.29,0.046,275.0
2023-12-08T02:19:03,42.805,6.029,-0.048,0.007,-0.044,111.0,109.0,107.0,13.4,1505.2,353.6,-0.8,1.8,2471.606,13.29,0.048,278.3
2023-12-08T02:22:03,42.805,6.029,-0.045,0.004,-0.018,110.0,110.0,107.0,13.4,1505.2,343.3,-0.8,1.8,2471.562,13.29,0.045,275.1
2023-12-08T02:25:03,42.805,6.029,-0.036,0.018,-0.003,112.0,111.0,107.0,13.4,1505.2,0.8,-0.8,1.8,2471.568,13.29,0.04,296.6
2023-12-08T02:28:03,42.805,6.029,-0.038,0.014,0.015,112.0,110.0,107.0,13.4,1505.2,335.8,-0.7,1.8,2471.552,13.29,0.04,290.2
2023-12-08T02:31:03,42.805,6.029,-0.032,0.008,0.037,111.0,110.0,107.0,13.4,1505.2,351.2,-0.7,1.8,2471.603,13.29,0.032,284.0
2023-12-08T02:34:03,42.805,6.029,-0.022,0.003,-0.023,111.0,110.0,107.0,13.4,1505.2,349.5,-0.8,1.8,2471.579,13.29,0.022,277.8
2023-12-08T02:37:03,42.805,6.029,-0.012,-0.004,-0.015,112.0,109.0,107.0,13.3,1505.2,346.1,-0.8,1.8,2471.571,13.29,0.012,251.6
2023-12-08T02:40:03,42.805,6.029,-0.045,0.017,0.003,112.0,111.0,106.0,13.4,1505.2,343.6,-0.7,1.8,2471.559,13.29,0.048,290.7
2023-12-08T02:43:03,42.805,6.029,-0.037,0.008,-0.052,111.0,109.0,107.0,13.4,1505.2,351.7,-0.7,1.8,2471.58,13.29,0.037,282.2
2023-12-08T02:46:03,42.805,6.029,-0.037,0.008,-0.008,112.0,110.0,108.0,13.4,1505.2,349.1,-0.8,1.8,2471.579,13.29,0.037,282.2
2023-12-08T02:49:03,42.805,6.029,-0.031,0.01,-0.022,111.0,110.0,108.0,13.4,1505.2,1.7,-0.7,1.8,2471.586,13.29,0.032,287.9
2023-12-08T02:52:03,42.805,6.029,-0.034,0.013,-0.014,110.0,109.0,106.0,13.4,1505.2,353.6,-0.8,1.8,2471.553,13.29,0.036,290.9
2023-12-08T02:55:03,42.805,6.029,-0.033,0.029,-0.041,110.0,109.0,106.0,13.4,1505.2,0.8,-0.8,1.8,2471.587,13.29,0.043,311.3
2023-12-08T02:58:03,42.805,6.029,-0.04,0.008,-0.036,110.0,109.0,107.0,13.4,1505.2,352.5,-0.7,1.8,2471.594,13.29,0.04,281.3
2023-12-08T03:04:03,42.805,6.029,-0.056,0.005,-0.028,110.0,110.0,107.0,13.4,1505.2,344.2,-0.8,1.8,2471.653,13.29,0.056,275.1
2023-12-08T03:07:03,42.805,6.029,-0.033,0.01,-0.028,110.0,110.0,107.0,13.3,1505.2,1.6,-0.7,1.8,2471.636,13.29,0.034,286.9
2023-12-08T03:10:03,42.805,6.029,-0.039,-0.002,-0.04,112.0,111.0,106.0,13.4,1505.2,352.5,-0.8,1.8,2471.649,13.29,0.039,267.1
2023-12-08T03:13:03,42.805,6.029,-0.027,0.003,-0.001,111.0,110.0,108.0,13.3,1505.2,358.4,-0.7,1.8,2471.627,13.29,0.027,276.3
2023-12-08T03:16:03,42.805,6.029,-0.026,0.005,-0.027,111.0,110.0,107.0,13.4,1505.2,353.6,-0.8,1.8,2471.616,13.29,0.026,280.9
2023-12-08T03:19:03,42.805,6.029,-0.026,0.004,-0.02,111.0,111.0,108.0,13.4,1505.2,0.0,-0.8,1.8,2471.595,13.29,0.026,278.7
2023-12-08T03:22:03,42.805,6.029,-0.024,0.026,-0.004,111.0,110.0,108.0,13.4,1505.2,353.1,-0.8,1.8,2471.586,13.29,0.035,317.3
2023-12-08T03:25:03,42.805,6.029,-0.032,0.035,-0.034,110.0,109.0,108.0,13.4,1505.2,358.1,-0.7,1.8,2471.602,13.29,0.047,317.6
2023-12-08T03:28:03,42.805,6.029,-0.029,0.0,-0.016,110.0,110.0,108.0,13.4,1505.2,357.4,-0.8,1.8,2471.573,13.29,0.028,270.0
2023-12-08T03:31:03,42.805,6.029,-0.021,0.019,-0.025,112.0,109.0,107.0,13.4,1505.2,0.0,-0.7,1.8,2471.629,13.29,0.028,312.1
2023-12-08T03:34:03,42.805,6.029,-0.032,0.012,-0.025,111.0,109.0,107.0,13.4,1505.2,342.1,-0.8,1.8,2471.602,13.29,0.034,290.6
2023-12-08T03:37:03,42.805,6.029,-0.025,0.017,-0.001,110.0,111.0,107.0,13.4,1505.2,342.3,-0.8,1.8,2471.644,13.29,0.03,304.2
2023-12-08T03:40:03,42.805,6.029,-0.041,0.006,-0.004,110.0,110.0,108.0,13.4,1505.2,338.6,-0.8,1.8,2471.604,13.29,0.041,278.3
2023-12-08T03:43:03,42.805,6.029,-0.036,0.017,0.012,110.0,110.0,107.0,13.3,1505.2,345.3,-0.7,1.8,2471.628,13.29,0.039,295.3
2023-12-08T03:46:03,42.805,6.029,-0.022,0.026,-0.029,110.0,109.0,106.0,13.3,1505.2,341.5,-0.8,1.8,2471.61,13.29,0.034,319.8
2023-12-08T03:49:03,42.805,6.029,-0.024,0.006,-0.003,111.0,110.0,108.0,13.4,1505.2,350.8,-0.7,1.8,2471.66,13.29,0.024,284.0
2023-12-08T03:52:03,42.805,6.029,-0.04,-0.003,-0.026,111.0,109.0,106.0,13.4,1505.2,338.9,-0.8,1.8,2471.603,13.29,0.04,265.7
2023-12-08T03:55:03,42.805,6.029,-0.024,-0.006,-0.019,111.0,109.0,107.0,13.4,1505.2,345.3,-0.8,1.8,2471.564,13.29,0.024,256.0
2023-12-08T03:58:03,42.805,6.029,-0.012,0.009,0.011,111.0,110.0,107.0,13.3,1505.2,357.3,-0.7,1.8,2471.607,13.29,0.015,306.9
2023-12-08T04:04:03,42.805,6.029,-0.043,0.01,-0.001,111.0,109.0,106.0,13.4,1505.2,349.7,-0.7,1.8,2471.69,13.29,0.044,283.1
2023-12-08T04:07:03,42.805,6.029,-0.035,-0.006,-0.014,111.0,110.0,106.0,13.4,1505.2,349.4,-0.8,1.8,2471.648,13.29,0.035,260.3
2023-12-08T04:10:03,42.805,6.029,-0.044,0.0,-0.016,110.0,110.0,106.0,13.4,1505.2,353.8,-0.7,1.8,2471.649,13.29,0.044,270.0
2023-12-08T04:13:03,42.805,6.029,-0.049,0.004,-0.026,111.0,110.0,107.0,13.4,1505.2,339.6,-0.8,1.8,2471.683,13.29,0.049,274.7
2023-12-08T04:16:03,42.805,6.029,-0.04,0.005,-0.006,110.0,110.0,107.0,13.4,1505.2,352.5,-0.8,1.8,2471.655,13.29,0.04,277.1
2023-12-08T04:19:03,42.805,6.029,-0.02,-0.001,-0.022,112.0,110.0,107.0,13.4,1505.2,345.3,-0.8,1.8,2471.654,13.29,0.02,267.1
2023-12-08T04:22:03,42.805,6.029,-0.05,0.004,-0.039,111.0,109.0,107.0,13.4,1505.2,0.0,-0.8,1.8,2471.633,13.29,0.05,274.6
2023-12-08T04:25:03,42.805,6.029,-0.04,0.014,0.009,111.0,111.0,107.0,13.4,1505.2,347.9,-0.8,1.8,2471.636,13.29,0.042,289.3
2023-12-08T04:28:03,42.805,6.029,-0.036,0.018,-0.032,111.0,110.0,107.0,13.4,1505.2,2.5,-0.8,1.8,2471.653,13.29,0.04,296.6
2023-12-08T04:31:03,42.805,6.029,-0.041,0.01,-0.047,110.0,109.0,107.0,13.3,1505.2,340.7,-0.8,1.8,2471.644,13.29,0.042,283.7
2023-12-08T04:34:03,42.805,6.029,-0.037,0.004,0.021,110.0,109.0,106.0,13.3,1505.2,344.2,-0.7,1.8,2471.638,13.29,0.037,276.2
2023-12-08T04:37:03,42.805,6.029,-0.024,0.009,-0.028,111.0,109.0,108.0,13.4,1505.2,340.1,-0.8,1.8,2471.617,13.29,0.025,290.6
2023-12-08T04:40:03,42.805,6.029,-0.02,0.018,0.007,111.0,110.0,107.0,13.4,1505.2,353.1,-0.8,1.8,2471.645,13.29,0.026,312.0
2023-12-08T04:43:03,42.805,6.029,-0.019,0.011,-0.004,111.0,110.0,107.0,13.4,1505.2,1.7,-0.8,1.8,2471.637,13.29,0.021,300.1
2023-12-08T04:46:03,42.805,6.029,-0.042,0.004,-0.027,111.0,109.0,107.0,13.4,1505.2,356.5,-0.7,1.8,2471.588,13.29,0.042,275.4
2023-12-08T04:49:03,42.805,6.029,-0.025,0.029,-0.015,111.0,110.0,108.0,13.3,1505.2,0.8,-0.8,1.8,2471.626,13.29,0.038,319.2
2023-12-08T04:52:03,42.805,6.029,-0.027,0.012,-0.004,111.0,110.0,107.0,13.3,1505.2,342.7,-0.8,1.8,2471.64,13.29,0.029,294.0
2023-12-08T04:55:03,42.805,6.029,-0.025,0.038,-0.016,111.0,111.0,107.0,13.4,1505.2,355.9,-0.7,1.8,2471.634,13.29,0.045,326.7
2023-12-08T04:58:03,42.805,6.029,-0.03,0.021,-0.033,111.0,109.0,106.0,13.3,1505.2,0.8,-0.8,1.8,2471.606,13.29,0.036,305.0
2023-12-08T05:04:03,42.805,6.029,-0.03,0.013,-0.045,111.0,111.0,107.0,13.3,1505.2,347.2,-0.7,1.8,2471.617,13.29,0.032,293.4
2023-12-08T05:07:03,42.805,6.029,-0.019,0.021,-0.013,111.0,110.0,107.0,13.3,1505.2,359.1,-0.8,1.8,2471.655,13.29,0.028,317.9
2023-12-08T05:10:03,42.805,6.029,-0.052,0.003,-0.024,112.0,110.0,107.0,13.3,1505.2,347.1,-0.8,1.8,2471.631,13.29,0.052,273.3
2023-12-08T05:13:03,42.805,6.029,-0.033,0.026,-0.011,111.0,111.0,108.0,13.4,1505.2,353.6,-0.8,1.8,2471.675,13.29,0.042,308.2
2023-12-08T05:16:03,42.805,6.029,-0.026,0.036,0.006,112.0,111.0,107.0,13.3,1505.2,346.4,-0.7,1.8,2471.629,13.29,0.044,324.2
2023-12-08T05:19:03,42.805,6.029,-0.019,0.039,-0.016,111.0,110.0,107.0,13.4,1505.2,1.7,-0.8,1.8,2471.655,13.29,0.043,334.0
2023-12-08T05:22:03,42.805,6.029,-0.009,0.001,-0.033,111.0,110.0,107.0,13.3,1505.2,343.8,-0.8,1.8,2471.644,13.29,0.009,276.3
2023-12-08T05:25:03,42.805,6.029,-0.039,0.001,0.004,111.0,109.0,108.0,13.3,1505.2,351.1,-0.7,1.8,2471.644,13.29,0.039,271.5
2023-12-08T05:28:03,42.805,6.029,-0.052,0.021,-0.022,112.0,109.0,106.0,13.3,1505.2,345.2,-0.8,1.8,2471.587,13.29,0.056,292.0
2023-12-08T05:31:03,42.805,6.029,-0.047,0.015,-0.036,111.0,109.0,107.0,13.4,1505.2,349.6,-0.8,1.8,2471.618,13.29,0.049,287.7
2023-12-08T05:34:03,42.805,6.029,-0.033,0.035,-0.025,111.0,110.0,107.0,13.4,1505.2,353.6,-0.7,1.8,2471.585,13.29,0.048,316.7
2023-12-08T05:37:03,42.805,6.029,-0.025,0.009,-0.002,110.0,109.0,107.0,13.4,1505.2,343.6,-0.7,1.8,2471.613,13.29,0.026,289.8
2023-12-08T05:40:03,42.805,6.029,-0.023,0.023,-0.03,111.0,110.0,107.0,13.4,1505.2,356.6,-0.8,1.8,2471.597,13.29,0.032,315.0
2023-12-08T05:43:03,42.805,6.029,-0.024,0.014,-0.039,111.0,109.0,107.0,13.3,1505.2,356.0,-0.8,1.8,2471.627,13.29,0.027,300.3
2023-12-08T05:46:03,42.805,6.029,0.0,0.017,-0.02,110.0,110.0,107.0,13.4,1505.2,357.4,-0.8,1.8,2471.586,13.29,0.017,0.0
2023-12-08T05:49:03,42.805,6.029,-0.03,0.013,-0.023,112.0,110.0,107.0,13.4,1505.2,349.5,-0.8,1.8,2471.601,13.29,0.032,293.4
2023-12-08T05:52:03,42.805,6.029,-0.02,0.014,0.005,111.0,110.0,107.0,13.4,1505.2,345.7,-0.8,1.8,2471.624,13.29,0.024,305.0
2023-12-08T05:55:03,42.805,6.029,-0.021,0.023,-0.043,111.0,110.0,106.0,13.4,1505.2,357.2,-0.8,1.8,2471.615,13.29,0.031,317.6
2023-12-08T05:58:03,42.805,6.029,-0.028,0.039,-0.017,111.0,109.0,106.0,13.3,1505.2,355.2,-0.8,1.8,2471.575,13.29,0.048,324.3
2023-12-08T06:04:03,42.805,6.029,-0.027,0.015,-0.016,111.0,110.0,107.0,13.4,1505.2,2.5,-0.8,1.8,2471.631,13.29,0.03,299.1
2023-12-08T06:07:03,42.805,6.029,-0.011,0.004,0.005,112.0,109.0,107.0,13.4,1505.2,350.8,-0.8,1.8,2471.635,13.29,0.011,290.0
2023-12-08T06:10:03,42.805,6.029,-0.027,0.009,-0.022,111.0,110.0,107.0,13.3,1505.2,0.8,-0.8,1.8,2471.634,13.29,0.028,288.4
2023-12-08T06:13:03,42.805,6.029,-0.006,0.02,-0.006,112.0,110.0,107.0,13.4,1505.2,354.3,-0.8,1.8,2471.596,13.29,0.02,343.3
2023-12-08T06:16:03,42.805,6.029,-0.019,0.007,-0.031,110.0,110.0,108.0,13.4,1505.2,353.5,-0.8,1.8,2471.597,13.29,0.02,290.2
2023-12-08T06:19:03,42.805,6.029,-0.032,0.024,-0.007,111.0,110.0,108.0,13.4,1505.2,351.5,-0.7,1.8,2471.606,13.29,0.04,306.9
2023-12-08T06:22:03,42.805,6.029,-0.035,0.007,-0.029,111.0,110.0,107.0,13.4,1505.2,345.7,-0.8,1.8,2471.598,13.29,0.035,281.3
2023-12-08T06:25:03,42.805,6.029,-0.032,0.001,-0.013,112.0,110.0,107.0,13.4,1505.2,336.5,-0.7,1.8,2471.619,13.29,0.032,271.8
2023-12-08T06:28:03,42.805,6.029,-0.024,0.02,0.019,111.0,110.0,107.0,13.4,1505.2,354.0,-0.8,1.8,2471.601,13.29,0.031,309.8
2023-12-08T06:31:03,42.805,6.029,-0.024,0.008,-0.018,111.0,110.0,107.0,13.4,1505.2,338.9,-0.8,1.8,2471.581,13.29,0.025,288.4
2023-12-08T06:34:03,42.805,6.029,-0.035,0.002,-0.01,110.0,109.0,108.0,13.4,1505.2,345.1,-0.8,1.8,2471.573,13.29,0.035,273.3
2023-12-08T06:37:03,42.805,6.029,-0.007,0.008,-0.008,111.0,110.0,107.0,13.3,1505.2,357.6,-0.7,1.8,2471.595,13.29,0.01,318.8
2023-12-08T06:40:03,42.805,6.029,-0.008,0.009,-0.019,111.0,110.0,106.0,13.4,1505.2,356.6,-0.8,1.8,2471.607,13.29,0.012,318.4
2023-12-08T06:43:03,42.805,6.029,-0.005,0.005,-0.022,111.0,111.0,107.0,13.4,1505.2,2.5,-0.7,1.8,2471.555,13.29,0.007,315.0
2023-12-08T06:46:03,42.805,6.029,-0.028,-0.001,-0.027,111.0,110.0,107.0,13.4,1505.2,344.5,-0.7,1.8,2471.581,13.29,0.028,268.0
2023-12-08T06:49:03,42.805,6.029,-0.011,0.016,-0.009,111.0,109.0,108.0,13.4,1505.2,356.8,-0.8,1.8,2471.576,13.29,0.019,325.5
2023-12-08T06:52:03,42.805,6.029,-0.028,0.014,-0.016,110.0,109.0,107.0,13.3,1505.2,351.9,-0.8,1.8,2471.58,13.29,0.031,296.6
2023-12-08T06:55:03,42.805,6.029,-0.009,0.009,-0.018,111.0,108.0,108.0,13.4,1505.2,343.9,-0.7,1.8,2471.587,13.29,0.012,315.0
2023-12-08T06:58:03,42.805,6.029,-0.035,0.012,-0.028,111.0,110.0,106.0,13.4,1505.2,353.5,-0.8,1.8,2471.589,13.29,0.037,288.9
2023-12-08T07:04:03,42.805,6.029,-0.008,0.026,-0.006,111.0,110.0,107.0,13.4,1505.2,336.9,-0.8,1.8,2471.603,13.29,0.027,342.9
2023-12-08T07:07:03,42.805,6.029,-0.018,0.005,-0.029,111.0,110.0,107.0,13.3,1505.2,355.0,-0.7,1.8,2471.616,13.29,0.018,285.5
2023-12-08T07:10:03,42.805,6.029,-0.014,0.005,0.016,111.0,110.0,107.0,13.4,1505.2,348.3,-0.7,1.8,2471.609,13.29,0.014,289.6
2023-12-08T07:13:03,42.805,6.029,-0.019,0.007,-0.01,111.0,111.0,107.0,13.3,1505.2,350.2,-0.8,1.8,2471.588,13.29,0.02,290.2
2023-12-08T07:16:03,42.805,6.029,0.0,0.021,-0.036,112.0,111.0,106.0,13.4,1505.2,351.3,-0.8,1.8,2471.593,13.29,0.021,0.0
2023-12-08T07:19:03,42.805,6.029,-0.026,0.026,-0.01,112.0,109.0,107.0,13.3,1505.2,350.6,-0.8,1.8,2471.542,13.29,0.036,315.0
2023-12-08T07:22:03,42.805,6.029,-0.03,0.011,-0.022,112.0,111.0,106.0,13.4,1505.2,354.7,-0.8,1.8,2471.584,13.29,0.031,290.1
2023-12-08T07:25:03,42.805,6.029,-0.023,0.0,-0.018,110.0,111.0,107.0,13.4,1505.2,345.9,-0.7,1.8,2471.614,13.29,0.023,270.0
2023-12-08T07:28:03,42.805,6.029,-0.011,0.019,-0.031,112.0,110.0,107.0,13.4,1505.2,351.8,-0.7,1.8,2471.611,13.29,0.021,329.9
2023-12-08T07:31:03,42.805,6.029,-0.032,0.0,-0.014,112.0,109.0,106.0,13.3,1505.2,337.7,-0.7,1.8,2471.595,13.29,0.032,270.0
2023-12-08T07:34:03,42.805,6.029,-0.013,0.02,-0.003,111.0,110.0,107.0,13.4,1505.2,346.8,-0.8,1.8,2471.585,13.29,0.023,327.0
2023-12-08T07:37:03,42.805,6.029,-0.042,0.001,-0.019,111.0,109.0,106.0,13.4,1505.2,344.6,-0.8,1.8,2471.597,13.29,0.042,271.4
2023-12-08T07:40:03,42.805,6.029,-0.04,0.0,-0.048,112.0,110.0,108.0,13.3,1505.2,355.6,-0.8,1.8,2471.572,13.29,0.04,270.0
2023-12-08T07:43:03,42.805,6.029,-0.029,0.016,-0.008,111.0,110.0,107.0,13.4,1505.2,355.4,-0.7,1.8,2471.571,13.29,0.033,298.9
2023-12-08T07:46:03,42.805,6.029,-0.022,-0.021,0.009,111.0,111.0,107.0,13.4,1505.2,339.0,-0.7,1.8,2471.581,13.29,0.03,226.3
2023-12-08T07:49:03,42.805,6.029,-0.038,-0.003,-0.028,111.0,111.0,109.0,13.3,1505.2,348.6,-0.7,1.8,2471.565,13.29,0.038,265.5
2023-12-08T07:52:03,42.805,6.029,-0.027,0.01,-0.025,111.0,110.0,108.0,13.4,1505.2,350.3,-0.8,1.8,2471.598,13.29,0.028,290.3
2023-12-08T07:55:03,42.805,6.029,-0.014,-0.008,-0.016,112.0,111.0,107.0,13.4,1505.2,2.4,-0.8,1.8,2471.552,13.29,0.016,240.3
2023-12-08T07:58:03,42.805,6.029,-0.014,0.024,-0.013,111.0,109.0,108.0,13.4,1505.2,355.6,-0.8,1.8,2471.542,13.29,0.027,329.7
2023-12-08T08:04:03,42.805,6.029,0.012,-0.003,0.023,112.0,110.0,107.0,13.4,1505.2,344.2,-0.8,1.8,2471.599,13.29,0.012,104.0
2023-12-08T08:07:03,42.805,6.029,-0.035,0.006,0.004,110.0,110.0,108.0,13.3,1505.2,358.3,-0.7,1.8,2471.591,13.29,0.035,279.7
2023-12-08T08:10:03,42.805,6.029,-0.038,0.012,-0.049,111.0,110.0,107.0,13.4,1505.2,354.7,-0.8,1.8,2471.59,13.29,0.039,287.5
2023-12-08T08:13:03,42.805,6.029,-0.004,0.0,-0.007,111.0,109.0,106.0,13.4,1505.2,356.4,-0.8,1.8,2471.562,13.29,0.004,270.0
2023-12-08T08:16:03,42.805,6.029,-0.018,0.009,-0.029,111.0,110.0,108.0,13.4,1505.2,345.5,-0.8,1.9,2471.577,13.29,0.02,296.6
2023-12-08T08:19:03,42.805,6.029,-0.032,0.005,0.004,111.0,109.0,107.0,13.4,1505.2,346.6,-0.8,1.8,2471.591,13.29,0.032,278.9
2023-12-08T08:22:03,42.805,6.029,-0.015,-0.015,0.0,111.0,111.0,107.0,13.4,1505.2,345.1,-0.8,1.8,2471.534,13.29,0.021,225.0
2023-12-08T08:25:03,42.805,6.029,-0.023,-0.004,0.002,112.0,111.0,107.0,13.4,1505.2,338.9,-0.8,1.8,2471.568,13.29,0.023,260.1
2023-12-08T08:28:03,42.805,6.029,-0.016,-0.001,0.001,111.0,108.0,107.0,13.4,1505.2,349.9,-0.7,1.8,2471.549,13.29,0.016,266.4
2023-12-08T08:31:03,42.805,6.029,-0.002,0.006,-0.008,112.0,110.0,108.0,13.4,1505.2,347.1,-0.8,1.8,2471.595,13.29,0.006,341.6
2023-12-08T08:34:03,42.805,6.029,-0.026,0.005,-0.009,111.0,109.0,106.0,13.3,1505.2,359.2,-0.8,1.8,2471.579,13.29,0.026,280.9
2023-12-08T08:37:03,42.805,6.029,-0.014,0.006,-0.018,110.0,111.0,107.0,13.4,1505.2,357.4,-0.7,1.8,2471.585,13.29,0.015,293.2
2023-12-08T08:40:03,42.805,6.029,0.0,0.004,-0.008,111.0,110.0,106.0,13.3,1505.2,342.7,-0.7,1.8,2471.564,13.29,0.004,0.0
2023-12-08T08:43:03,42.805,6.029,-0.007,0.0,-0.019,110.0,109.0,108.0,13.3,1505.2,355.6,-0.7,1.8,2471.545,13.29,0.007,270.0
2023-12-08T08:46:03,42.805,6.029,-0.018,-0.002,-0.046,111.0,111.0,107.0,13.4,1505.2,337.6,-0.7,1.8,2471.563,13.29,0.018,263.7
2023-12-08T08:49:03,42.805,6.029,-0.039,0.0,-0.006,110.0,108.0,106.0,13.4,1505.2,353.5,-0.7,1.8,2471.539,13.29,0.039,270.0
2023-12-08T08:52:03,42.805,6.029,-0.01,0.004,-0.003,112.0,110.0,106.0,13.3,1505.2,352.6,-0.7,1.8,2471.543,13.29,0.01,291.8
2023-12-08T08:55:03,42.805,6.029,-0.039,-0.004,-0.039,109.0,109.0,107.0,13.4,1505.2,2.4,-0.8,1.8,2471.525,13.29,0.039,264.1
2023-12-08T08:58:03,42.805,6.029,-0.015,-0.003,-0.017,112.0,111.0,107.0,13.3,1505.2,349.6,-0.8,1.8,2471.523,13.29,0.015,258.7
2023-12-08T09:04:03,42.805,6.029,-0.023,0.012,-0.021,111.0,110.0,107.0,13.3,1505.2,354.7,-0.8,1.8,2471.608,13.29,0.025,297.6
2023-12-08T09:07:03,42.805,6.029,0.0,-0.012,0.002,110.0,109.0,107.0,13.3,1505.2,344.5,-0.7,1.8,2471.593,13.29,0.012,180.0
2023-12-08T09:10:03,42.805,6.029,-0.016,-0.007,-0.011,110.0,110.0,107.0,13.4,1505.2,341.0,-0.8,1.8,2471.606,13.29,0.017,246.4
2023-12-08T09:13:03,42.805,6.029,-0.012,0.014,-0.025,111.0,111.0,106.0,13.4,1505.2,351.9,-0.8,1.8,2471.571,13.29,0.018,319.4
2023-12-08T09:16:03,42.805,6.029,-0.008,-0.001,0.01,111.0,109.0,107.0,13.3,1505.2,356.1,-0.8,1.8,2471.57,13.29,0.008,262.9
2023-12-08T09:19:03,42.805,6.029,-0.023,0.01,-0.027,110.0,109.0,107.0,13.3,1505.2,357.4,-0.8,1.8,2471.551,13.29,0.025,293.5
2023-12-08T09:22:03,42.805,6.029,-0.011,0.0,-0.016,110.0,110.0,105.0,13.4,1505.2,0.8,-0.8,1.8,2471.596,13.29,0.011,270.0
2023-12-08T09:25:03,42.805,6.029,-0.003,-0.003,-0.026,111.0,110.0,107.0,13.4,1505.2,348.5,-0.8,1.8,2471.567,13.29,0.004,225.0
2023-12-08T09:28:03,42.805,6.029,0.0,0.0,0.008,110.0,111.0,107.0,13.4,1505.2,2.6,-0.8,1.8,2471.561,13.29,0.0,0.0
2023-12-08T09:31:03,42.805,6.029,-0.012,-0.019,-0.022,111.0,108.0,108.0,13.3,1505.2,339.9,-0.8,1.8,2471.538,13.29,0.022,212.3
2023-12-08T09:34:03,42.805,6.029,0.001,-0.006,-0.013,111.0,111.0,107.0,13.4,1505.2,358.2,-0.8,1.8,2471.53,13.29,0.006,170.5
2023-12-08T09:37:03,42.805,6.029,-0.023,-0.018,-0.021,110.0,110.0,107.0,13.4,1505.2,346.5,-0.7,1.8,2471.573,13.29,0.029,232.0
2023-12-08T09:40:03,42.805,6.029,-0.038,-0.005,-0.034,111.0,109.0,107.0,13.3,1505.2,351.6,-0.8,1.8,2471.555,13.29,0.038,262.5
2023-12-08T09:43:03,42.805,6.029,-0.013,-0.008,-0.047,110.0,109.0,107.0,13.3,1505.2,355.5,-0.7,1.8,2471.611,13.29,0.015,238.4
2023-12-08T09:46:03,42.805,6.029,-0.02,-0.006,-0.013,111.0,110.0,107.0,13.3,1505.2,1.6,-0.8,1.8,2471.567,13.29,0.02,253.3
2023-12-08T09:49:03,42.805,6.029,-0.007,0.007,-0.02,111.0,111.0,107.0,13.4,1505.2,356.6,-0.8,1.8,2471.532,13.29,0.009,315.0
2023-12-08T09:52:03,42.805,6.029,-0.032,-0.007,-0.007,111.0,111.0,107.0,13.4,1505.2,357.3,-0.7,1.8,2471.551,13.29,0.032,257.7
2023-12-08T09:55:03,42.805,6.029,-0.003,0.0,-0.007,110.0,110.0,107.0,13.3,1505.2,336.6,-0.8,1.8,2471.514,13.29,0.003,270.0